Weather in Frunzenskoye

Russia / Kaliningrad Oblast     54°29′13″N   21°33′30″E
temp.,
°C
wind,
m/s
gust,
m/s
humid.,
%
clouds,
%
prec.,
mm/h
press.,
hPa
HPBL,
m
26 february, fri
fri2623:00+8sw410920 0.0 1022243
02:00+7wsw415930 0.0 1022558
05:00+6w5139123 0.0 1021522
08:00+5w5138460 0.0 1021528
11:00+6w61172100 0.0 1021758
14:00+8w7126999 0.0 10201130
17:00+6w8137982 0.0 10191070
20:00+5w7138491 0.0 1019818
27 february, sat
sat2723:00+4w6139074 0.0 1018544
02:00+3wnw5129144 0.0 1019418
05:00+3nw5129031 0.0 1020549
08:00+2nw5138931 0.0 1022592
11:00+5nnw712760 0.0 1024770
14:00+5nnw712720 0.0 1026798
17:00+4nw612710 0.0 1027813
20:00+1nw511870 0.0 1029432
28 february, sun
sun2823:000nw310930 0.0 1030370
02:000nw38950 0.0 1031282
05:000wnw389369 0.0 1030234
08:000w269462 0.0 1031159
11:00+5wnw487087 0.0 1030502
14:00+8wnw586452 0.0 1030776
17:00+6nw49808 0.0 1029663
20:00+3nw5108738 0.0 1031404
1 march, mon
mon123:00+2nw489268 0.0 1031272
02:00+1wnw259446 0.0 1033112
05:00+1nw25940 0.0 1032113
08:00+1wnw25930 0.0 1033101
11:00+6nw35760 0.0 1034310
14:00+9nw46630 0.0 1034572
17:00+8nw37710 0.0 1034377
20:00+3w249013 0.0 1034100
2 march, tue
tue223:00+2wsw359028 0.0 1035107
02:00+2wsw378931 0.0 1035162
05:00+2w37900 0.0 1034152
08:00+1w379015 0.0 1034164
11:00+6w47748 0.0 1035449
14:00+9w476717 0.0 1034636
17:00+8wnw37720 0.0 1033467
20:00+4w23850 0.0 103339